{"data":{"norad_id":49260,"intl_designator":"2021-088A","name":"LANDSAT 9","alt_names":[],"object_type":"PAYLOAD","status":"ACTIVE","operator":null,"country":"US","launch_date":"2021-09-27","launch_site_code":"AFWTR","launch_vehicle":null,"mission":null,"orbit_class":"UNKNOWN","rcs_meters":null,"size_class":null,"mass_kg":null,"dimensions":null,"purposes":["earth_obs"],"wikipedia_slug":null,"has_3d_model":false,"image_url":null,"decayed_at":null,"tle_current":{"epoch":"2026-05-25T04:36:45.837216Z","epoch_age_seconds":61955,"freshness":"FRESH","line1":"1 49260U 21088A   26145.19219719  .00000267  00000+0  69333-4 0  9999","line2":"2 49260  98.1858 215.6996 0001446  97.9305 262.2058 14.57115672247656","mean_motion":14.57115672,"eccentricity":0.0001446,"inclination_deg":98.1858,"raan_deg":215.6996,"arg_perigee_deg":97.9305,"mean_anomaly_deg":262.2058,"bstar":6.9333e-5,"rev_number":24765,"period_min":98.825373144432,"perigee_km":701.47872055224,"apogee_km":703.52644151907,"semimajor_km":7080.6395810357,"source":"CELESTRAK","updated_at":"2026-05-25T13:38:12.834522Z"}}}